Location: *
(45.1961°N, 1.9694°E)
Time: 05:56:23
(UTC+00:00)

SPOT 3 Rocket - Pass Details

Date: 25 August 2019
Orbit: 778 x 795 km, 98.8° (Epoch: 16 September)

Event Time Altitude Azimuth Distance (km) Brightness Sun altitude
Rises 19:04:11 0° 151° (SSE) 3,268 6.3 -4.4°
Reaches altitude 10° 19:06:31 10° 148° (SSE) 2,341 5.5 -4.8°
Maximum altitude 19:11:34 57° 71° (ENE) 926 3.7 -5.6°
Drops below altitude 10° 19:16:37 10° 354° (N) 2,347 6.4 -6.5°
Sets 19:18:58 0° 350° (N) 3,278 7.3 -6.8°
